Météo par heure à Almaly

Ce jour, 15 Mai, Samedi

Heure Température Précipitation Vent Pression Humidité
00:00 +14°C° 0 mm 10 m/s 710 mmHg 48%
01:00 +13°C° 0 mm 10 m/s 709 mmHg 49%
02:00 +13°C° 0 mm 10 m/s 709 mmHg 51%
03:00 +12°C° 0 mm 10 m/s 709 mmHg 53%
04:00 +12°C° 0 mm 10 m/s 709 mmHg 55%
05:00 +11°C° 0 mm 11 m/s 709 mmHg 57%
06:00 +12°C° 0 mm 11 m/s 709 mmHg 57%
07:00 +13°C° 0 mm 12 m/s 709 mmHg 56%
08:00 +14°C° 0 mm 12 m/s 709 mmHg 56%
09:00 +15°C° 0 mm 13 m/s 710 mmHg 51%
10:00 +18°C° 0 mm 13 m/s 710 mmHg 45%
11:00 +19°C° 0 mm 13 m/s 710 mmHg 40%
12:00 +20°C° 0 mm 13 m/s 710 mmHg 38%
13:00 +22°C° 0 mm 13 m/s 710 mmHg 36%
14:00 +22°C° 0 mm 13 m/s 710 mmHg 34%
15:00 +22°C° 0 mm 13 m/s 710 mmHg 34%
16:00 +22°C° 0 mm 13 m/s 710 mmHg 34%
17:00 +20°C° 0 mm 13 m/s 710 mmHg 34%
18:00 +19°C° 0 mm 13 m/s 710 mmHg 34%
19:00 +18°C° 0 mm 13 m/s 710 mmHg 34%
20:00 +18°C° 0 mm 14 m/s 710 mmHg 34%
21:00 +17°C° 0 mm 13 m/s 709 mmHg 36%
22:00 +15°C° 0 mm 13 m/s 709 mmHg 38%
23:00 +14°C° 0 mm 13 m/s 709 mmHg 40%

Demain, 16 Mai, Dimanche

Heure Température Précipitation Vent Pression Humidité
00:00 +14°C° 0 mm 12 m/s 709 mmHg 42%
01:00 +13°C° 0 mm 12 m/s 709 mmHg 43%
02:00 +13°C° 0 mm 11 m/s 708 mmHg 45%
03:00 +13°C° 0 mm 11 m/s 709 mmHg 45%
04:00 +12°C° 0 mm 11 m/s 709 mmHg 45%
05:00 +12°C° 0 mm 11 m/s 709 mmHg 45%
06:00 +13°C° 0 mm 11 m/s 709 mmHg 45%
07:00 +14°C° 0 mm 11 m/s 709 mmHg 45%
08:00 +16°C° 0 mm 11 m/s 710 mmHg 45%
09:00 +17°C° 0 mm 11 m/s 710 mmHg 41%
10:00 +19°C° 0 mm 12 m/s 710 mmHg 37%
11:00 +21°C° 0 mm 12 m/s 710 mmHg 34%
12:00 +22°C° 0 mm 12 m/s 710 mmHg 31%
13:00 +23°C° 0 mm 11 m/s 710 mmHg 29%
14:00 +24°C° 0 mm 11 m/s 710 mmHg 27%
15:00 +24°C° 0 mm 11 m/s 710 mmHg 28%
16:00 +24°C° 0 mm 11 m/s 710 mmHg 29%
17:00 +23°C° 0 mm 11 m/s 710 mmHg 30%
18:00 +22°C° 0 mm 11 m/s 709 mmHg 30%
19:00 +21°C° 0 mm 11 m/s 709 mmHg 30%
20:00 +19°C° 0 mm 11 m/s 709 mmHg 30%
21:00 +19°C° 0 mm 11 m/s 709 mmHg 31%
22:00 +18°C° 0 mm 11 m/s 709 mmHg 32%
23:00 +18°C° 0 mm 10 m/s 709 mmHg 33%

Après-demain, 17 Mai, Lundi

Heure Température Précipitation Vent Pression Humidité
00:00 +17°C° 0 mm 9 m/s 709 mmHg 36%
01:00 +16°C° 0 mm 9 m/s 709 mmHg 38%
02:00 +15°C° 0 mm 8 m/s 709 mmHg 40%
03:00 +15°C° 0 mm 7 m/s 709 mmHg 41%
04:00 +15°C° 0 mm 7 m/s 709 mmHg 42%
05:00 +15°C° 0 mm 7 m/s 709 mmHg 42%
06:00 +16°C° 0 mm 7 m/s 710 mmHg 42%
07:00 +18°C° 0 mm 7 m/s 710 mmHg 41%
08:00 +20°C° 0 mm 7 m/s 710 mmHg 41%
09:00 +21°C° 0 mm 8 m/s 710 mmHg 38%
10:00 +22°C° 0 mm 8 m/s 711 mmHg 35%
11:00 +24°C° 0 mm 9 m/s 711 mmHg 32%
12:00 +26°C° 0 mm 9 m/s 711 mmHg 29%
13:00 +27°C° 0 mm 8 m/s 711 mmHg 27%
14:00 +28°C° 0 mm 8 m/s 711 mmHg 24%
15:00 +27°C° 0 mm 8 m/s 710 mmHg 25%
16:00 +27°C° 0 mm 8 m/s 710 mmHg 27%
17:00 +27°C° 0 mm 7 m/s 710 mmHg 28%
18:00 +24°C° 0 mm 6 m/s 710 mmHg 30%
19:00 +22°C° 0 mm 6 m/s 709 mmHg 32%
20:00 +20°C° 0 mm 5 m/s 709 mmHg 34%
21:00 +20°C° 0 mm 5 m/s 709 mmHg 33%
22:00 +20°C° 0 mm 5 m/s 709 mmHg 33%
23:00 +19°C° 0 mm 5 m/s 708 mmHg 32%

18 Mai, Mardi

Heure Température Précipitation Vent Pression Humidité
00:00 +19°C° 0 mm 5 m/s 708 mmHg 34%
01:00 +19°C° 0 mm 6 m/s 708 mmHg 35%
02:00 +19°C° 0 mm 6 m/s 708 mmHg 37%
03:00 +17°C° 0 mm 6 m/s 707 mmHg 38%
04:00 +17°C° 0 mm 5 m/s 707 mmHg 40%
05:00 +16°C° 0 mm 5 m/s 707 mmHg 41%
06:00 +19°C° 0 mm 5 m/s 708 mmHg 41%
07:00 +21°C° 0 mm 5 m/s 708 mmHg 40%
08:00 +23°C° 0 mm 5 m/s 708 mmHg 40%
09:00 +25°C° 0 mm 5 m/s 708 mmHg 36%
10:00 +27°C° 0 mm 5 m/s 708 mmHg 33%
11:00 +28°C° 0 mm 5 m/s 708 mmHg 30%
12:00 +29°C° 0 mm 4 m/s 708 mmHg 27%
13:00 +30°C° 0 mm 3 m/s 708 mmHg 24%
14:00 +31°C° 0 mm 2 m/s 708 mmHg 20%
15:00 +31°C° 0 mm 2 m/s 708 mmHg 21%
16:00 +31°C° 0 mm 2 m/s 707 mmHg 22%
17:00 +31°C° 0 mm 1 m/s 707 mmHg 22%
18:00 +28°C° 0 mm 2 m/s 707 mmHg 30%
19:00 +25°C° 0 mm 3 m/s 707 mmHg 37%
20:00 +21°C° 0 mm 4 m/s 707 mmHg 45%
21:00 +21°C° 0 mm 4 m/s 707 mmHg 42%
22:00 +21°C° 0 mm 4 m/s 706 mmHg 39%
23:00 +21°C° 0 mm 4 m/s 706 mmHg 36%

19 Mai, Mercredi

Heure Température Précipitation Vent Pression Humidité
00:00 +20°C° 0 mm 3 m/s 706 mmHg 36%
01:00 +20°C° 0 mm 3 m/s 706 mmHg 35%
02:00 +20°C° 0 mm 2 m/s 706 mmHg 35%
03:00 +20°C° 0 mm 2 m/s 706 mmHg 35%
04:00 +19°C° 0 mm 2 m/s 706 mmHg 34%
05:00 +19°C° 0 mm 2 m/s 705 mmHg 34%
06:00 +21°C° 0 mm 2 m/s 706 mmHg 34%
07:00 +25°C° 0 mm 2 m/s 706 mmHg 33%
08:00 +27°C° 0 mm 2 m/s 707 mmHg 32%
09:00 +28°C° 0 mm 2 m/s 707 mmHg 28%
10:00 +30°C° 0 mm 2 m/s 707 mmHg 24%
11:00 +31°C° 0 mm 2 m/s 707 mmHg 20%
12:00 +32°C° 0 mm 2 m/s 707 mmHg 19%
13:00 +32°C° 0 mm 2 m/s 707 mmHg 18%
14:00 +33°C° 0 mm 3 m/s 707 mmHg 18%
15:00 +33°C° 0 mm 3 m/s 707 mmHg 20%
16:00 +31°C° 0 mm 3 m/s 707 mmHg 23%
17:00 +31°C° 0 mm 3 m/s 707 mmHg 25%
18:00 +28°C° 0 mm 3 m/s 707 mmHg 31%
19:00 +25°C° 0 mm 3 m/s 707 mmHg 37%
20:00 +21°C° 0 mm 4 m/s 707 mmHg 43%
21:00 +21°C° 0 mm 3 m/s 707 mmHg 44%
22:00 +20°C° 0 mm 3 m/s 707 mmHg 45%
23:00 +20°C° 0 mm 3 m/s 706 mmHg 45%

20 Mai, Jeudi

Heure Température Précipitation Vent Pression Humidité
00:00 +20°C° 0 mm 3 m/s 706 mmHg 42%
01:00 +20°C° 0 mm 3 m/s 706 mmHg 38%
02:00 +20°C° 0 mm 3 m/s 706 mmHg 35%
03:00 +19°C° 0 mm 3 m/s 706 mmHg 38%
04:00 +19°C° 0 mm 3 m/s 706 mmHg 41%
05:00 +18°C° 0 mm 3 m/s 706 mmHg 44%
06:00 +20°C° 0 mm 3 m/s 707 mmHg 42%
07:00 +23°C° 0 mm 4 m/s 707 mmHg 40%
08:00 +26°C° 0 mm 4 m/s 708 mmHg 38%
09:00 +27°C° 0 mm 5 m/s 708 mmHg 36%
10:00 +28°C° 0 mm 6 m/s 708 mmHg 35%
11:00 +29°C° 0 mm 7 m/s 709 mmHg 33%
12:00 +29°C° 0 mm 8 m/s 709 mmHg 32%
13:00 +31°C° 0 mm 8 m/s 708 mmHg 31%
14:00 +31°C° 0 mm 9 m/s 708 mmHg 30%
15:00 +31°C° 0 mm 9 m/s 708 mmHg 32%
16:00 +29°C° 0 mm 9 m/s 708 mmHg 35%
17:00 +29°C° 0 mm 9 m/s 708 mmHg 37%
18:00 +27°C° 0 mm 10 m/s 708 mmHg 37%
19:00 +26°C° 0 mm 11 m/s 708 mmHg 37%
20:00 +23°C° 0 mm 12 m/s 708 mmHg 38%
21:00 +22°C° 0 mm 12 m/s 708 mmHg 37%
22:00 +19°C° 0 mm 12 m/s 708 mmHg 37%
23:00 +18°C° 0 mm 12 m/s 708 mmHg 36%
Voir plus

Nous avons besoin de votre consentement

Meteoprog et ses fournisseurs de services peuvent stocker et accéder à des données personnelles telles que des cookies, des identifiants d'appareils ou d'autres technologies similaires sur votre appareil et traiter ces données pour personnaliser le contenu et les publicités, ainsi que pour fournir des fonctionnalités de médias sociaux et analyser le trafic.

  • Stocker et/ou accéder à des informations sur votre appareil

    Des cookies, des identifiants d'appareils ou d'autres informations peuvent être stockés ou accessibles sur votre appareil aux fins indiquées ci-dessus.

  • Annonces et contenus personnalisés, mesure des annonces et des contenus, connaissance de l'audience et développement de produits

    Les annonces et le contenu peuvent être personnalisés en fonction d'un profil. D'autres données peuvent être ajoutées pour mieux personnaliser les annonces et le contenu. Les performances des publicités et du contenu peuvent être mesurées. Il est possible d'obtenir des informations sur le public qui a vu les publicités et le contenu. Ces données peuvent être utilisées pour développer ou améliorer l'expérience de l'utilisateur, les systèmes et les logiciels.

En cliquant sur "J'accepte", vous autorisez l'utilisation de cookies, des identifiants d'appareils, des balises web ou d'autres technologies similaires. Vos paramètres peuvent être modifiés dans le navigateur de votre appareil.

Dans certains cas, des intérêts légitimes peuvent être invoqués plutôt qu'un consentement. Vous pouvez en savoir plus à ce sujet dans notre Politique de confidentialité et de cookies.